Weather History for Murray, KY

Change the Weather History Date:

Monday, December 10, 2012

  Actual Average (KPAH) Record (KPAH)
Temperature  
Mean Temperature 41 °F 39 °F  
Max Temperature 50 °F 48 °F 72 °F (1971)
Min Temperature 32 °F 30 °F 2 °F (1995)
Degree Days  
Heating Degree Days 24 26  
Month to date heating degree days 249  
Since 1 July heating degree days 1026  
Cooling Degree Days 0 0  
Month to date cooling degree days 0  
Year to date cooling degree days 1542  
Moisture  
Dew Point 31 °F    
Average Humidity 79    
Maximum Humidity 100    
Minimum Humidity 69    
Precipitation  
Precipitation 0.00 in 0.16 in 1.83 in (1964)
Month to date precipitation 1.57  
Year to date precipitation 46.06  
Snow  
Snow 0.00 in 0.10 in 1.00 in (1962)
Month to date snowfall 0.5  
Since 1 July snowfall 0.6  
Snow Depth -    
Sea Level Pressure  
Sea Level Pressure 29.91 in    
Wind  
Wind Speed 12 mph (NNW)    
Max Wind Speed 18 mph    
Max Gust Speed 22 mph    
Visibility 10 miles    
Events      
T = Trace of Precipitation, MM = Missing Value Source: NWS Daily Summary

Daily Weather History Graph

Daily Weather History Graph

Search for Another Location

Airport:

Trip Planner

Search our weather history database for the weather conditions in past years. The results will help you decide how hot, cold, wet, or windy it might be!

Date:

Astronomy

Dec. 10, 2012 Rise Set
Actual Time 6:55 AM CST 4:37 PM CST
Civil Twilight 6:26 AM CST 5:06 PM CST
Nautical Twilight 5:54 AM CST 5:38 PM CST
Astronomical Twilight 5:22 AM CST 6:10 PM CST
Moon 3:41 AM CST (12/10) 2:24 PM CST (12/10)
Length of Visible Light 10h 39m
Length of Day
9h 42m
Waning Crescent, 10% of the Moon is Illuminated
Dec 10
Waning Crescent
Dec 13
New
Dec 19
First Quarter
Dec 28
Full
Jan 4
Last Quarter

Hourly Weather History & Observations

Time (CST) Temp. Windchill Dew Point Humidity Pressure Visibility Wind Dir Wind Speed Gust Speed Precip Events Conditions
12:15 AM 50.0 °F - 48.2 °F 94% 29.81 in 10.0 mi NNW 12.7 mph - N/A   Overcast
12:35 AM 50.0 °F - 48.2 °F 94% 29.81 in 10.0 mi NNW 15.0 mph 20.7 mph N/A   Overcast
12:55 AM 48.2 °F - 46.4 °F 93% 29.80 in 10.0 mi NNW 12.7 mph 18.4 mph N/A   Overcast
1:15 AM 48.2 °F - 46.4 °F 93% 29.80 in 8.0 mi NNW 15.0 mph 19.6 mph N/A   Overcast
1:55 AM 46.4 °F 40.1 °F 44.6 °F 93% 29.81 in 5.0 mi NNW 15.0 mph 19.6 mph N/A   Overcast
2:15 AM 46.4 °F 39.5 °F 44.6 °F 93% 29.81 in 7.0 mi NNW 17.3 mph 21.9 mph N/A   Overcast
2:35 AM 46.4 °F 40.1 °F 44.6 °F 93% 29.80 in 5.0 mi North 15.0 mph 19.6 mph N/A   Overcast
2:55 AM 46.4 °F 41.1 °F 44.6 °F 93% 29.81 in 4.0 mi NNW 11.5 mph - N/A   Overcast
3:15 AM 44.6 °F 37.4 °F 44.6 °F 100% 29.81 in 4.0 mi North 16.1 mph 20.7 mph N/A   Overcast
3:35 AM 44.6 °F 38.1 °F 42.8 °F 93% 29.81 in 5.0 mi NNE 13.8 mph - N/A   Overcast
3:55 AM 44.6 °F 38.4 °F 42.8 °F 93% 29.81 in 7.0 mi North 12.7 mph 16.1 mph N/A   Overcast
4:15 AM 44.6 °F 38.4 °F 41.0 °F 87% 29.81 in 10.0 mi North 12.7 mph 17.3 mph N/A   Overcast
4:35 AM 44.6 °F 39.7 °F 39.2 °F 81% 29.81 in 10.0 mi North 9.2 mph - N/A   Overcast
4:55 AM 44.6 °F 39.2 °F 41.0 °F 87% 29.81 in 10.0 mi North 10.4 mph - N/A   Overcast
5:15 AM 44.6 °F 39.2 °F 37.4 °F 76% 29.81 in 10.0 mi North 10.4 mph - N/A   Overcast
5:55 AM 44.6 °F 40.2 °F 37.4 °F 76% 29.83 in 10.0 mi NNW 8.1 mph - N/A   Overcast
6:15 AM 42.8 °F 37.5 °F 37.4 °F 81% 29.84 in 10.0 mi North 9.2 mph - N/A   Overcast
6:35 AM 42.8 °F 38.6 °F 37.4 °F 81% 29.82 in 10.0 mi North 6.9 mph - N/A   Overcast
6:55 AM 42.8 °F 38.6 °F 37.4 °F 81% 29.81 in 10.0 mi NE 6.9 mph - N/A   Overcast
7:15 AM 42.8 °F 37.5 °F 37.4 °F 81% 29.82 in 10.0 mi NNW 9.2 mph - N/A   Overcast
7:35 AM 42.8 °F 37.0 °F 37.4 °F 81% 29.83 in 10.0 mi NNW 10.4 mph - N/A   Overcast
7:55 AM 41.0 °F 34.3 °F 37.4 °F 87% 29.83 in 10.0 mi NNW 11.5 mph - N/A   Overcast
8:15 AM 41.0 °F 33.5 °F 35.6 °F 81% 29.85 in 10.0 mi NW 13.8 mph - N/A   Overcast
8:35 AM 39.2 °F 32.0 °F 32.0 °F 75% 29.85 in 10.0 mi NNW 11.5 mph - N/A   Overcast
8:55 AM 39.2 °F 30.5 °F 32.0 °F 75% 29.87 in 10.0 mi NNW 16.1 mph 21.9 mph N/A   Overcast
9:35 AM 35.6 °F 25.5 °F 30.2 °F 81% 29.90 in 10.0 mi NNW 17.3 mph 21.9 mph N/A   Overcast
9:55 AM 33.8 °F 22.8 °F 28.4 °F 81% 29.91 in 10.0 mi NNW 18.4 mph 21.9 mph N/A   Overcast
10:15 AM 33.8 °F 24.3 °F 26.6 °F 75% 29.91 in 10.0 mi NNW 13.8 mph 20.7 mph N/A   Overcast
10:55 AM 33.8 °F 24.8 °F 26.6 °F 75% 29.89 in 10.0 mi North 12.7 mph - N/A   Overcast
11:15 AM 33.8 °F 24.8 °F 26.6 °F 75% 29.88 in 10.0 mi NNW 12.7 mph - N/A   Overcast
11:35 AM 33.8 °F 24.3 °F 26.6 °F 75% 29.88 in 10.0 mi NNW 13.8 mph - N/A   Mostly Cloudy
11:55 AM 33.8 °F 24.3 °F 28.4 °F 81% 29.89 in 10.0 mi NW 13.8 mph - N/A   Overcast
12:15 PM 33.8 °F 23.5 °F 26.6 °F 75% 29.89 in 10.0 mi NNW 16.1 mph - N/A   Overcast
12:35 PM 35.6 °F 26.6 °F 26.6 °F 70% 29.88 in 10.0 mi NNW 13.8 mph 19.6 mph N/A   Overcast
12:55 PM 35.6 °F 28.0 °F 26.6 °F 70% 29.88 in 10.0 mi NNW 10.4 mph - N/A   Overcast
1:15 PM 33.8 °F 24.8 °F 26.6 °F 75% 29.88 in 10.0 mi NNW 12.7 mph - N/A   Overcast
1:55 PM 33.8 °F 25.3 °F 26.6 °F 75% 29.88 in 10.0 mi NNW 11.5 mph - N/A   Overcast
2:15 PM 33.8 °F 26.4 °F 26.6 °F 75% 29.88 in 10.0 mi NNW 9.2 mph - N/A   Overcast
2:35 PM 33.8 °F 25.8 °F 26.6 °F 75% 29.87 in 10.0 mi North 10.4 mph - N/A   Overcast
2:55 PM 33.8 °F 25.8 °F 26.6 °F 75% 29.90 in 10.0 mi NW 10.4 mph - N/A   Overcast
3:15 PM 33.8 °F 24.8 °F 26.6 °F 75% 29.90 in 10.0 mi NW 12.7 mph - N/A   Overcast
3:35 PM 32.0 °F 23.6 °F 26.6 °F 80% 29.92 in 10.0 mi NNW 10.4 mph - N/A   Overcast
3:55 PM 32.0 °F 22.1 °F 26.6 °F 80% 29.93 in 10.0 mi NNW 13.8 mph 19.6 mph N/A   Overcast
4:15 PM 32.0 °F 22.5 °F 24.8 °F 75% 29.94 in 10.0 mi NW 12.7 mph - N/A   Overcast
4:35 PM 32.0 °F 22.5 °F 24.8 °F 75% 29.94 in 10.0 mi NW 12.7 mph - N/A   Overcast
4:55 PM 32.0 °F 23.6 °F 24.8 °F 75% 29.96 in 10.0 mi NW 10.4 mph - N/A   Overcast
5:15 PM 32.0 °F 24.2 °F 24.8 °F 75% 29.97 in 10.0 mi NNW 9.2 mph - N/A   Overcast
5:35 PM 32.0 °F 22.5 °F 24.8 °F 75% 29.98 in 10.0 mi NNW 12.7 mph 17.3 mph N/A   Overcast
5:55 PM 32.0 °F 24.2 °F 24.8 °F 75% 29.99 in 10.0 mi NNW 9.2 mph - N/A   Overcast
6:15 PM 32.0 °F 24.2 °F 24.8 °F 75% 30.00 in 10.0 mi NNW 9.2 mph - N/A   Overcast
6:35 PM 32.0 °F 23.6 °F 24.8 °F 75% 30.00 in 10.0 mi NNW 10.4 mph 16.1 mph N/A   Overcast
6:55 PM 32.0 °F 23.0 °F 24.8 °F 75% 30.01 in 10.0 mi NNW 11.5 mph 16.1 mph N/A   Overcast
7:15 PM 32.0 °F 22.5 °F 24.8 °F 75% 30.02 in 10.0 mi NNW 12.7 mph 18.4 mph N/A   Overcast
7:35 PM 32.0 °F 23.0 °F 24.8 °F 75% 30.02 in 10.0 mi NNW 11.5 mph - N/A   Overcast
7:55 PM 32.0 °F 24.2 °F 24.8 °F 75% 30.03 in 10.0 mi North 9.2 mph - N/A   Overcast
8:15 PM 32.0 °F 26.4 °F 24.8 °F 75% 30.03 in 10.0 mi North 5.8 mph - N/A   Overcast
8:35 PM 32.0 °F 26.4 °F 24.8 °F 75% 30.04 in 10.0 mi North 5.8 mph - N/A   Overcast
8:55 PM 32.0 °F 24.2 °F 24.8 °F 75% 30.04 in 10.0 mi NNW 9.2 mph - N/A   Overcast
9:15 PM 32.0 °F 23.0 °F 24.8 °F 75% 30.04 in 10.0 mi North 11.5 mph - N/A   Overcast
9:35 PM 32.0 °F 24.8 °F 23.0 °F 69% 30.04 in 10.0 mi North 8.1 mph - N/A   Overcast
9:55 PM 32.0 °F 24.8 °F 23.0 °F 69% 30.04 in 10.0 mi North 8.1 mph - N/A   Overcast
10:15 PM 32.0 °F 25.6 °F 23.0 °F 69% 30.05 in 10.0 mi North 6.9 mph - N/A   Overcast
10:35 PM 32.0 °F 25.6 °F 23.0 °F 69% 30.06 in 10.0 mi North 6.9 mph - N/A   Overcast
10:55 PM 32.0 °F 24.8 °F 23.0 °F 69% 30.07 in 10.0 mi North 8.1 mph - N/A   Overcast
11:15 PM 32.0 °F 24.2 °F 23.0 °F 69% 30.07 in 10.0 mi North 9.2 mph - N/A   Overcast
11:55 PM 32.0 °F 25.6 °F 23.0 °F 69% 30.08 in 10.0 mi North 6.9 mph - N/A   Overcast